Tracking 30696 objects as of 15-Jun-2025
HD Live streaming from Space Station
objects crossing your sky now

TITAN 3C TRANSTAGE DEB

Track TITAN 3C TRANSTAGE DEB now!
10-day predictions


NORAD ID: 21692
Int'l Code: 1965-108AF
Perigee: 555.9 km
Apogee: 22,878.3 km
Inclination: 27.9 °
Period: 403.5 minutes
Semi major axis: 18088 km
RCS: 0.133 m2 (medium)
Launch date: December 21, 1965
Source: United States (US)
Launch site: AIR FORCE EASTERN TEST RANGE (AFETR)

Note: This is SATELLITE DEBRIS
Your satellite tracking list
Your tracking list is empty




NASA's NSSDC Master Catalog

Two Line Element Set (TLE):
1 21692U 65108AF  25166.87978396  .00001120  00000-0  53449-2 0  9998
2 21692  27.8869  32.9222 6170481 138.9667 240.8827  3.56874253393558
Source of the keplerian elements: AFSPC